Location: Plainartige
(45.6866°N, 1.7993°E)
Time: 20:46:51
(UTC+00:00)

Ariane Rocket - Pass Details

Date: 03 March 2021
Orbit: 759 x 771 km, 98.7° (Epoch: 13 April)

Event Time Altitude Azimuth Distance (km) Brightness Sun altitude
Exits shadow 20:22:15 39° 212° (SSW) 1,139 3.9 -28.2°
Maximum altitude 20:23:41 52° 260° (W) 960 3.7 -28.5°
Drops below altitude 10° 20:28:41 10° 336° (NNW) 2,322 6.0 -29.3°
Sets 20:31:04 0° 342° (NNW) 3,252 6.8 -29.7°
